FW9253 Weather Reports


time (UTC)temp
C
wind
direction
speed
KPH
gust
KPH
rain 1hr
cm
rain 24hr
cm
rain mn
cm
humidity
%
barometer
mb
20260505151137 24 112 0.0 1.6 0.00 0.00 0.00 2 1011.6
20260505150237 24 0 0.0 0.0 0.00 0.00 0.00 2 1011.6
20260505124736 26 0 0.0 0.0 0.00 0.00 0.00 2 1012.7
20260505123837 26 0 0.0 0.0 0.00 0.00 0.00 2 1012.7
20260505122937 27 112 0.0 3.2 0.00 0.00 0.00 2 1012.7
20260505122037 27 68 0.0 1.6 0.00 0.00 0.00 2 1012.7
20260505120236 27 0 0.0 0.0 0.00 0.00 0.00 2 1012.7
20260505114436 27 0 0.0 0.0 0.00 0.00 0.00 2 1012.7
20260505113537 27 155 0.0 4.8 0.00 0.00 0.00 2 1013.7
20260505112636 27 0 0.0 0.0 0.00 0.00 0.00 2 1013.7
20260505111736 27 298 0.0 4.8 0.00 0.00 0.00 2 1013.7
20260505110836 27 0 0.0 0.0 0.00 0.00 0.00 2 1013.7
20260505101436 27 292 0.0 1.6 0.00 0.00 0.00 2 1013.7
20260505100536 28 23 0.0 4.8 0.00 0.00 0.00 2 1014.7
20260505094736 27 23 1.6 6.4 0.00 0.00 0.00 2 1013.7
20260505093836 27 203 0.0 3.2 0.00 0.00 0.00 2 1013.7
20260505092936 27 22 0.0 11.3 0.00 0.00 0.00 2 1013.7
20260505092036 27 112 0.0 1.6 0.00 0.00 0.00 2 1013.7
20260505091136 27 216 0.0 9.7 0.00 0.00 0.00 2 1013.7
20260505090236 28 0 0.0 0.0 0.00 0.00 0.00 2 1013.7
20260505085336 27 0 0.0 0.0 0.00 0.00 0.00 2 1013.7
20260505084436 27 0 0.0 0.0 0.00 0.00 0.00 2 1013.7
20260505083535 26 0 0.0 0.0 0.00 0.00 0.00 2 1013.7
20260505082636 26 23 0.0 4.8 0.00 0.00 0.00 2 1013.7
20260505081736 25 0 0.0 0.0 0.00 0.00 0.00 2 1013.7
20260505080836 26 0 0.0 0.0 0.00 0.00 0.00 2 1013.7
20260505075935 26 45 0.0 8.0 0.00 0.00 0.00 2 1013.7
20260505075036 25 45 0.0 8.0 0.00 0.00 0.00 2 1014.7
20260505074135 23 0 0.0 0.0 0.00 0.00 0.00 2 1014.7
20260505073235 23 0 0.0 0.0 0.00 0.00 0.00 2 1014.7
20260505071435 22 0 0.0 0.0 0.00 0.00 0.00 3 1014.7
20260505070535 23 283 0.0 3.2 0.00 0.00 0.00 2 1014.7
20260505064735 25 0 0.0 0.0 0.00 0.00 0.00 2 1014.7
20260505062935 26 292 0.0 1.6 0.00 0.00 0.00 2 1014.7
20260505062035 25 0 0.0 0.0 0.00 0.00 0.00 2 1014.7
20260505060235 24 0 0.0 0.0 0.00 0.00 0.00 2 1014.7
20260505055335 23 0 0.0 0.0 0.00 0.00 0.00 2 1014.7
20260505054435 23 0 0.0 0.0 0.00 0.00 0.00 2 1014.7
20260505053535 22 0 0.0 0.0 0.00 0.00 0.00 2 1014.7
20260505052635 22 0 0.0 0.0 0.00 0.00 0.00 3 1014.7
20260505051735 22 0 0.0 0.0 0.00 0.00 0.00 3 1014.7
20260505040535 18 0 0.0 0.0 0.00 0.00 0.00 25 1013.7
20260505035635 18 0 0.0 0.0 0.00 0.00 0.00 25 1013.7
20260505034735 17 0 0.0 0.0 0.00 0.00 0.00 26 1013.7
20260505033834 16 0 0.0 0.0 0.00 0.00 0.00 33 1013.7
20260505032034 13 0 0.0 0.0 0.00 0.00 0.00 41 1012.7
20260505031134 12 0 0.0 0.0 0.00 0.00 0.00 45 1011.6
20260505030234 12 0 0.0 0.0 0.00 0.00 0.00 46 1011.6
20260505025334 11 0 0.0 0.0 0.00 0.00 0.00 49 1010.6
20260505024434 10 0 0.0 0.0 0.00 0.00 0.00 52 1010.6
20260505023534 9 0 0.0 0.0 0.00 0.00 0.00 53 1010.6
20260505022634 8 0 0.0 0.0 0.00 0.00 0.00 54 1010.6
20260505021734 8 0 0.0 0.0 0.00 0.00 0.00 54 1010.6
20260505020834 8 0 0.0 0.0 0.00 0.00 0.00 54 1011.6
20260505015034 8 0 0.0 0.0 0.00 0.00 0.00 55 1011.6
20260505014134 7 0 0.0 0.0 0.00 0.00 0.00 55 1011.6
20260505013234 7 0 0.0 0.0 0.00 0.00 0.00 55 1011.6
20260505012334 7 0 0.0 0.0 0.00 0.00 0.00 55 1011.6
20260505011434 7 0 0.0 0.0 0.00 0.00 0.00 55 1011.6
20260505010534 7 0 0.0 0.0 0.00 0.00 0.00 55 1011.6
20260505003834 8 0 0.0 0.0 0.00 0.00 0.00 54 1011.6
20260505002934 7 0 0.0 0.0 0.00 0.00 0.00 55 1011.6
20260505002034 7 181 0.0 1.6 0.00 0.00 0.00 54 1011.6
20260504235334 7 0 0.0 0.0 0.00 0.00 0.00 55 1011.6
20260504234433 7 0 0.0 0.0 0.00 0.00 0.00 54 1011.6
20260504233533 7 0 0.0 0.0 0.00 0.00 0.00 54 1011.6
20260504232633 8 0 0.0 0.0 0.00 0.00 0.00 54 1011.6
20260504231733 8 0 0.0 0.0 0.00 0.00 0.00 55 1011.6
20260504230833 8 0 0.0 0.0 0.00 0.00 0.00 54 1011.6
20260504225033 8 0 0.0 0.0 0.00 0.00 0.00 54 1011.6
20260504224133 8 0 0.0 0.0 0.00 0.00 0.00 53 1011.6
20260504222333 8 0 0.0 0.0 0.00 0.00 0.00 53 1011.6
20260504221433 8 0 0.0 0.0 0.00 0.00 0.00 53 1011.6
20260504220533 8 0 0.0 0.0 0.00 0.00 0.00 53 1011.6
20260504215633 8 0 0.0 0.0 0.00 0.00 0.00 52 1011.6
20260504214733 8 0 0.0 0.0 0.00 0.00 0.00 52 1011.6
20260504213833 8 0 0.0 0.0 0.00 0.00 0.00 52 1011.6
20260504212933 8 0 0.0 0.0 0.00 0.00 0.00 52 1011.6
20260504212033 8 0 0.0 0.0 0.00 0.00 0.00 52 1011.6
20260504211133 8 0 0.0 0.0 0.00 0.00 0.00 51 1011.6
20260504205341 8 0 0.0 0.0 0.00 0.00 0.00 51 1011.6
20260504203541 8 0 0.0 0.0 0.00 0.00 0.00 51 1012.7
20260504201741 9 0 0.0 0.0 0.00 0.00 0.00 50 1011.6
20260504200841 9 0 0.0 0.0 0.00 0.00 0.00 49 1011.6
20260504195941 9 0 0.0 0.0 0.00 0.00 0.00 49 1011.6
20260504195041 9 0 0.0 0.0 0.00 0.00 0.00 48 1011.6
20260504194141 9 0 0.0 0.0 0.00 0.00 0.00 48 1011.6
20260504193241 9 0 0.0 0.0 0.00 0.00 0.00 48 1011.6
20260504185641 10 0 0.0 0.0 0.00 0.00 0.00 46 1010.6
20260504184741 10 0 0.0 0.0 0.00 0.00 0.00 44 1010.6
20260504182040 10 0 0.0 0.0 0.00 0.00 0.00 41 1011.6
20260504181140 10 0 0.0 0.0 0.00 0.00 0.00 40 1011.6
20260504180241 10 0 0.0 0.0 0.00 0.00 0.00 40 1011.6
20260504175340 11 0 0.0 0.0 0.00 0.00 0.00 40 1011.6
20260504174440 11 0 0.0 0.0 0.00 0.00 0.00 39 1011.6
20260504173540 11 0 0.0 0.0 0.00 0.00 0.00 39 1011.6
20260504172640 11 0 0.0 0.0 0.00 0.00 0.00 38 1011.6
20260504170840 12 0 0.0 0.0 0.00 0.00 0.00 36 1012.7